Powrót do katalogu

HORUS 1

AktywnyNaukaSSO
NORAD 55690·PAYLOAD·🇪🇬 Egypt

Wystrzelony Feb 24, 2023 z Jiuquan Satellite Launch Center

Loading…

Następne Przeloty (najbliższe 24 godziny)

TLE

ŚwieżeSource: Space-Track

Epoka: Sep 14, 2026, 13:11 UTC

1 55690U 23025A   26257.54950422  .00004349  00000-0  18551-3 0  9993
2 55690  97.3389 330.2290 0001684 127.2548 232.8843 15.23432591197656

Śledź HORUS 1 w czasie rzeczywistym z AllMySat

Download on the App Store